Flag for Ukraine Weather past 2 weeks in Luhansk, Ukraine

Now
43 °F

Sprinkles. Mostly cloudy.


Feels Like: 38 °F
Forecast: 39 / 49 °F
Wind: 8 mph from Northeast

Location: Rostov-Na-Donu

Current Time: Apr 2, 2015 at 1:21:34 PM

Latest Report: Apr 2, 2015 at 1:00 PM


Visibility: 4 mi

Pressure: 29.59 "Hg

Humidity: 100%

Dew point: 43 °F

Location of LuhanskLocation

Historic Weather in Luhansk — Graph

°F

Luhansk temperature yesterday

Maximum temperature yesterday: 45 °F (at 8:30 PM)
Minimum temperature yesterday: 36 °F (at 12:00 AM)
Average temperature yesterday: 39 °F

Past Weeks' High & Low Weather Summary

 TemperatureHumidityPressure
High66 °F (Mar 26, 1:30 PM)100% (Mar 23, 6:30 AM)30.51 "Hg (Mar 23, 6:30 AM)
Low21 °F (Mar 24, 3:30 AM)24% (Mar 27, 3:00 PM)29.65 "Hg (Apr 2, 11:00 AM)
Average42 °F63%30.08 "Hg
* Reported Mar 18 11:00 AM — Apr 2 11:00 AM, Luhansk, Weather by CustomWeather, © 2015

Note: Actual official high and low records may vary slightly from our data, if they occured in-between our weather recording intervals... More about our weather records

Advertising

Luhansk weather history for previous 24 hours

 ConditionsComfort  
Time TempWeatherWind HumidityBarometerVisibility
11:00 AM
Thu, Apr 2
46 °FSprinkles. Fog.6 mph93%29.65 "Hg2 mi
10:00 AM45 °FSprinkles. Fog.3 mph93%29.68 "Hg2 mi
9:00 AM45 °FSprinkles. Fog.6 mph100%29.68 "Hg2 mi
8:30 AM45 °FSprinkles. Fog.6 mph100%29.68 "Hg1 mi
8:00 AM45 °FFog.8 mph100%29.68 "Hg2 mi
7:30 AM46 °FFog.8 mph93%29.68 "Hg1 mi
7:00 AM46 °FSprinkles. Fog.8 mph93%29.68 "Hg1 mi
6:30 AM46 °FSprinkles. Fog.8 mph93%29.71 "Hg1 mi
6:00 AM46 °FLight rain. Fog.8 mph93%29.71 "Hg1 mi
5:30 AM46 °FLight rain. Fog.6 mph93%29.71 "Hg1 mi
5:00 AM46 °FLight rain. Fog.6 mph93%29.71 "Hg2 mi
4:30 AM46 °FLight rain. Fog.6 mph93%29.74 "Hg1 mi
4:00 AM46 °FSprinkles. Fog.6 mph93%29.74 "Hg1 mi
3:30 AM46 °FSprinkles. Fog.6 mph93%29.74 "Hg1 mi
3:00 AM46 °FSprinkles. Fog.6 mph93%29.74 "Hg1 mi
2:30 AM46 °FSprinkles. Fog.6 mph93%29.74 "Hg2 mi
2:00 AM46 °FSprinkles. Fog.6 mph93%29.74 "Hg1 mi
1:30 AM46 °FSprinkles. Fog.8 mph93%29.74 "Hg1 mi
1:00 AM45 °FSprinkles. Fog.8 mph100%29.74 "Hg1 mi
12:30 AM45 °FSprinkles. Fog.6 mph100%29.74 "Hg0 mi
12:00 AM45 °FSprinkles. Fog.8 mph100%29.74 "Hg1 mi
11:30 PM
Wed, Apr 1
45 °FSprinkles. Fog.6 mph93%29.77 "Hg2 mi
11:00 PM45 °FSprinkles. Fog.6 mph93%29.77 "Hg1 mi
10:30 PM45 °FSprinkles. Fog.6 mph93%29.77 "Hg2 mi
10:00 PM45 °FSprinkles. Fog.6 mph93%29.77 "Hg2 mi
9:30 PM45 °FSprinkles. Fog.6 mph93%29.77 "Hg3 mi
9:00 PM45 °FSprinkles. Fog.6 mph93%29.77 "Hg3 mi
8:30 PM45 °FSprinkles. Fog.6 mph93%29.77 "Hg3 mi
8:00 PM43 °FOvercast.6 mph100%29.77 "Hg4 mi
7:00 PM43 °FFog.6 mph100%29.77 "Hg3 mi
6:00 PM43 °FSprinkles. Fog.8 mph100%29.77 "Hg2 mi
5:00 PM43 °FSprinkles. Fog.6 mph93%29.77 "Hg1 mi
4:00 PM43 °FDrizzle. Fog.8 mph93%29.77 "Hg2 mi
3:00 PM41 °FDrizzle. Fog.10 mph93%29.77 "Hg2 mi
2:00 PM41 °FDrizzle. Fog.10 mph93%29.77 "Hg2 mi
1:00 PM41 °FDrizzle. Fog.10 mph93%29.80 "Hg1 mi
Weather by CustomWeather, © 2015

See weather overviewHow to use our weather pages